Wind_Speed
23 23 23 24 24 24 25 25 25 26 26 26 26 26 26 25 26 26 27 27 27 27 28 28 28 29 29 29 29 28 27 26 23 21 20 20 21 21 21 20 20 20 21 24 26 28 29 29 28 27 26 25 25 26 27 27 28 28 28 27 26 26 25 24 23 22 21 20 20
25 25 25 26 26 27 27 27 27 27 27 27 26 26 25 25 26 26 27 27 27 28 28 28 29 29 29 30 29 29 27 25 23 22 21 21 21 21 20 20 19 19 20 22 25 27 30 33 33 31 30 29 28 28 28 28 28 28 28 28 28 27 27 26 25 24 23 22 21
26 26 27 27 28 29 29 29 29 29 29 29 28 27 27 27 27 27 28 28 29 29 29 29 29 30 30 30 30 28 27 25 23 21 20 19 19 19 19 19 20 21 22 23 25 27 30 32 33 32 30 29 28 28 27 26 26 25 24 23 23 23 24 26 26 25 24 23 21
27 27 28 29 29 30 30 30 30 30 30 30 30 29 29 29 29 29 30 30 30 29 29 29 30 29 29 28 27 27 27 26 21 18 16 16 16 17 17 18 20 21 22 23 25 26 28 29 29 28 26 25 23 21 19 16 16 16 16 17 18 20 22 23 23 23 23 22 21
28 28 29 29 30 30 30 30 31 31 31 31 30 30 30 30 31 31 31 30 28 27 27 27 27 27 26 25 25 25 25 23 18 14 14 14 15 15 15 16 17 18 20 21 22 23 24 23 23 24 25 26 27 26 24 22 21 20 20 21 23 25 26 27 25 22 20 20 20
28 29 29 29 30 30 30 31 31 31 31 31 31 31 31 32 32 31 30 28 26 25 25 25 24 23 22 22 21 20 19 15 12 11 12 12 12 12 11 12 13 14 14 16 18 19 19 19 22 25 27 28 28 28 26 24 22 21 21 22 24 25 25 22 20 18 16 16 17
28 29 29 29 30 30 30 31 31 31 31 31 31 31 32 32 31 29 27 25 25 25 24 24 22 20 18 16 15 14 12 10 9 9 9 9 8 7 7 8 9 9 10 13 15 16 17 19 22 24 26 26 26 25 23 20 16 14 14 15 16 13 10 7 9 12 13 12 13
28 28 29 29 30 30 31 31 31 31 31 31 31 31 32 31 28 26 25 24 24 24 24 22 19 16 14 13 13 13 12 12 12 11 11 11 9 8 7 7 7 8 10 12 15 16 18 21 23 24 24 23 22 22 20 16 12 10 9 9 9 5 2 5 12 17 18 17 17
28 28 29 29 30 31 31 32 32 32 32 31 31 32 31 29 26 24 24 24 23 23 22 19 17 14 13 13 13 14 15 15 15 15 14 13 11 10 10 9 8 9 12 14 17 19 20 21 21 21 20 19 20 20 19 16 13 12 12 12 12 12 12 14 17 19 22 23 25
28 29 30 30 31 31 32 33 33 32 32 32 32 32 31 27 24 23 23 22 23 22 20 18 16 14 14 14 15 16 17 16 15 14 13 12 11 12 12 12 11 12 14 17 17 17 17 16 16 16 16 17 17 18 17 15 13 12 11 10 11 12 12 13 15 16 18 20 23
29 29 30 31 31 32 33 33 32 32 31 32 32 32 30 26 23 22 22 23 23 21 19 17 16 15 15 16 16 17 17 16 13 11 12 13 14 14 14 13 13 14 16 15 14 13 12 13 14 14 15 15 16 16 15 13 11 10 10 9 9 10 10 10 10 10 11 12 13
29 30 30 31 32 32 32 32 32 31 31 32 32 31 29 25 22 21 21 22 21 19 17 16 15 15 16 17 18 18 17 15 13 12 12 13 13 13 14 14 15 15 14 13 12 11 11 12 12 12 13 14 15 16 16 14 11 9 7 7 7 7 8 8 8 8 9 9 9
30 30 31 31 32 32 32 32 31 31 31 31 31 30 28 25 22 20 19 19 17 16 16 15 15 16 16 17 17 16 15 15 15 13 11 11 12 14 15 16 15 14 12 12 11 10 10 10 10 10 11 12 13 13 14 15 14 14 13 12 10 9 9 10 9 9 9 9 9
30 30 31 31 32 31 31 31 30 30 30 30 29 28 25 24 21 18 15 15 14 14 15 16 18 18 18 16 15 14 14 14 13 12 12 13 15 16 16 15 15 13 12 12 11 10 10 10 10 11 11 12 13 13 13 13 15 16 16 16 15 14 13 13 12 12 11 11 11
30 30 31 31 31 31 30 30 29 28 28 28 26 24 23 21 19 16 14 13 13 13 15 18 21 21 19 16 14 11 9 10 12 14 15 16 17 17 16 15 14 13 13 12 11 11 11 11 11 12 13 14 15 15 15 15 16 17 18 18 17 16 16 15 14 13 13 12 12
31 31 31 32 31 31 30 29 28 27 26 25 24 22 20 20 19 17 16 15 14 14 15 18 20 20 19 16 13 10 9 12 14 15 15 16 16 16 16 15 14 13 13 12 12 11 11 12 12 13 13 14 15 15 15 16 16 17 18 18 18 17 17 17 16 15 15 14 13
32 32 33 33 32 31 30 29 27 26 24 23 22 20 19 19 18 17 17 16 15 15 15 16 16 17 17 16 13 12 11 12 13 14 14 15 15 15 14 14 14 13 13 12 12 12 12 13 13 14 14 15 15 15 15 16 17 17 18 18 17 17 17 18 18 18 17 16 15
33 33 33 33 32 30 29 28 27 25 24 22 20 19 19 18 17 17 17 16 16 15 15 15 14 15 15 15 14 13 12 13 13 13 13 14 14 14 14 14 13 13 13 13 13 13 13 14 14 15 15 15 15 16 16 16 17 17 17 17 17 17 17 17 18 18 17 17 16
33 33 33 31 30 28 28 27 27 26 24 22 20 19 18 17 16 16 17 16 16 15 15 16 15 15 15 15 14 14 14 14 13 13 13 13 13 13 13 13 13 13 13 13 13 13 14 14 15 15 15 16 16 16 16 16 16 16 16 17 17 17 17 17 17 17 16 16 16
32 32 30 29 28 28 29 29 28 26 24 23 21 19 18 17 16 17 17 17 17 16 16 17 16 15 15 15 14 14 14 13 13 13 13 13 13 14 14 14 14 14 14 14 14 14 14 14 14 14 14 15 15 15 15 15 15 15 15 15 15 15 15 15 15 15 15 15 15
30 29 29 29 30 30 30 30 29 27 25 23 21 19 18 18 17 17 17 17 17 17 17 17 17 16 15 15 14 13 13 13 12 12 13 13 13 14 14 14 14 15 15 15 15 15 14 13 13 13 13 13 13 13 13 13 13 13 13 13 13 13 13 13 13 14 14 14 15
29 29 30 30 31 31 31 30 29 27 24 22 20 19 18 17 17 16 16 17 17 17 17 18 17 16 15 14 14 13 12 12 12 13 13 13 14 14 14 14 15 15 15 15 15 14 13 12 12 11 11 11 11 12 12 12 12 13 13 13 13 13 13 13 13 13 14 14 14
29 30 30 29 30 30 29 28 27 25 23 21 19 17 16 16 15 15 16 17 17 17 18 18 16 15 14 13 13 12 12 12 13 13 13 13 13 14 14 14 14 15 15 14 14 14 13 12 11 10 10 10 10 10 11 11 12 13 14 14 14 14 14 14 14 14 15 15 15
29 29 28 28 28 27 26 25 24 23 21 19 17 15 14 14 14 15 16 17 18 18 18 17 15 14 13 12 12 12 12 12 13 13 13 13 13 14 14 14 14 14 14 14 14 14 13 12 11 10 10 9 10 10 11 12 13 14 15 16 16 16 16 15 15 16 16 17 17
28 28 27 27 27 26 25 23 22 21 19 18 16 15 14 14 15 16 17 18 18 18 18 17 15 14 13 12 11 12 12 12 13 13 13 13 14 14 14 15 15 15 15 15 15 15 14 12 11 10 9 9 10 11 12 14 15 16 17 17 17 17 17 17 17 17 17 18 18
27 27 27 27 27 26 25 23 22 20 19 18 17 16 16 16 17 18 18 18 18 18 18 17 15 14 13 12 12 12 12 12 12 12 13 13 14 15 15 15 16 16 15 15 15 15 14 13 11 10 9 9 10 12 14 16 17 18 18 18 18 18 18 18 18 18 18 18 18
27 27 27 28 27 26 25 23 22 22 21 20 19 18 18 19 19 19 19 19 19 18 18 17 16 14 13 13 13 12 12 12 12 12 13 13 14 15 16 16 16 15 15 14 13 13 13 12 11 9 9 9 10 12 15 17 18 19 20 19 19 19 19 19 19 20 20 19 19
28 27 27 28 27 26 25 24 23 23 23 22 21 21 20 20 20 20 19 19 19 19 18 17 17 16 15 14 14 13 13 12 13 13 13 14 15 16 16 16 14 14 14 14 12 10 10 10 9 8 8 9 11 13 15 17 18 19 20 19 19 19 19 19 20 20 21 21 21
27 27 27 27 26 25 25 24 24 23 23 23 23 22 21 21 20 20 19 19 19 19 19 19 18 18 17 16 15 15 14 13 14 14 15 15 16 17 16 14 14 14 14 14 12 10 8 8 8 8 8 9 11 13 15 17 18 19 19 18 18 18 19 20 20 21 21 22 22
27 27 26 26 25 25 24 24 24 23 23 23 23 23 22 21 21 20 19 19 18 18 19 19 19 19 19 18 17 16 15 15 14 14 15 16 16 17 16 15 14 14 14 13 12 10 8 7 7 7 8 10 11 13 15 17 18 18 18 17 17 17 18 19 20 21 21 21 21
26 26 26 25 25 24 24 24 23 23 23 23 23 23 23 22 21 21 20 19 19 18 18 19 19 19 19 19 18 17 16 14 14 14 14 15 16 16 16 15 14 13 13 12 11 10 9 8 8 8 9 11 12 14 15 16 17 17 17 16 15 16 17 18 19 20 20 20 19
26 25 25 24 24 23 23 23 23 23 23 23 23 23 23 22 22 21 21 20 20 19 18 18 18 19 18 18 17 16 14 13 13 13 13 14 15 15 15 15 13 12 12 12 12 11 11 11 11 12 12 13 13 14 15 15 16 17 17 16 15 14 15 16 18 18 18 19 19
24 24 23 23 23 23 23 23 23 23 23 22 22 22 22 22 21 21 22 21 20 19 18 18 17 17 16 16 15 14 13 12 12 12 13 15 15 16 16 15 14 13 13 13 13 14 14 14 14 14 14 14 14 14 14 14 16 17 17 17 16 14 14 15 16 17 18 18 19
22 22 21 21 22 22 22 23 23 23 23 23 22 21 21 20 20 21 21 21 20 19 18 17 16 15 14 13 13 12 12 12 13 13 15 16 17 17 17 16 15 14 15 14 15 16 16 16 16 16 15 14 13 13 13 14 16 17 17 17 16 15 14 14 14 16 17 18 19
20 20 20 20 21 21 22 22 22 23 23 23 23 22 21 20 20 20 20 19 18 17 16 15 14 13 13 13 13 13 13 14 14 15 16 17 18 18 17 16 15 15 16 16 16 17 17 17 17 16 14 13 12 12 13 15 16 16 17 16 15 14 14 13 14 15 16 18 19
18 18 18 19 20 20 21 21 22 22 23 23 23 23 22 21 20 20 19 18 17 15 15 14 14 14 14 15 15 16 15 16 16 16 17 18 18 18 17 16 15 15 15 16 17 18 18 18 17 16 14 12 12 12 14 15 16 16 16 15 14 13 13 13 14 15 16 18 19
16 16 17 18 19 19 20 21 21 22 22 23 23 23 23 22 21 21 20 19 18 17 16 16 17 17 17 18 18 18 17 17 17 18 18 18 17 16 15 15 14 14 14 15 16 17 17 17 17 16 14 13 12 13 14 15 15 15 14 13 12 12 12 12 13 15 17 18 19
15 15 16 17 18 18 19 20 20 21 21 22 22 22 22 22 22 21 21 21 20 20 20 20 19 19 19 19 19 19 18 18 18 18 18 18 17 15 14 14 14 14 14 14 15 15 16 16 16 15 15 14 13 13 13 14 14 13 12 11 11 11 12 13 14 16 17 19 19
15 15 15 16 17 18 18 19 19 20 20 21 21 22 22 22 21 21 21 21 21 22 22 21 21 20 19 19 18 18 18 17 17 17 17 17 16 15 14 13 14 14 13 13 13 14 14 14 14 14 14 13 12 12 12 12 12 11 10 10 11 12 13 14 15 17 19 19 19
14 15 15 16 17 17 18 18 19 19 20 20 21 21 22 22 21 21 21 22 22 22 22 22 21 20 18 17 16 16 16 16 16 16 15 15 15 14 14 13 13 13 12 12 12 13 13 14 13 13 12 11 11 10 11 11 11 10 10 11 12 14 15 16 18 19 20 20 20
15 15 15 16 16 17 18 18 19 19 19 20 21 21 22 22 22 21 21 21 22 22 21 21 19 18 16 15 14 13 13 14 14 14 14 14 14 14 14 13 13 12 12 12 12 13 13 13 11 10 9 9 9 9 10 10 11 11 12 13 15 16 18 19 20 21 21 20 20
Wind_Direction
343 341 340 340 339 338 336 334 332 331 329 326 323 318 314 309 305 303 301 299 298 296 295 294 293 292 291 290 289 288 289 289 289 289 288 288 289 289 288 288 288 291 294 297 299 299 298 295 289 280 271 265 261 259 256 252 248 243 238 234 231 228 225 222 219 217 217 217 219
342 341 340 340 339 339 337 336 335 334 333 332 330 327 324 319 315 311 308 305 303 301 299 298 296 295 294 292 291 289 287 288 289 290 290 291 292 293 293 294 294 294 294 295 297 302 306 308 306 300 291 282 274 267 261 256 250 244 238 234 231 228 225 222 219 217 217 218 219
341 340 339 338 338 337 336 335 334 333 333 333 332 332 330 328 324 320 316 312 309 305 301 299 298 297 296 295 293 289 285 285 287 288 289 290 293 296 298 298 298 297 296 297 300 304 308 311 311 310 307 300 290 280 271 261 252 244 238 234 232 229 226 222 219 216 214 214 214
341 340 339 338 337 336 335 334 332 331 330 331 331 331 331 330 328 325 322 318 314 309 305 304 303 301 299 298 295 291 287 284 284 283 281 280 283 286 291 296 298 301 303 306 310 312 312 312 312 316 321 324 320 312 301 286 270 259 255 257 257 254 248 239 229 221 213 207 206
341 340 339 338 337 335 334 332 331 330 330 329 329 329 329 329 328 325 323 320 317 316 315 314 313 309 305 300 297 295 293 289 284 276 270 268 269 273 280 289 298 304 309 314 319 321 320 320 325 330 335 336 334 328 320 312 303 295 289 287 284 281 275 263 247 233 217 199 197
342 340 339 338 336 335 334 333 332 331 330 329 329 329 329 328 327 326 324 324 324 325 325 324 322 317 311 306 305 307 307 302 288 275 270 268 267 272 282 293 300 308 317 324 326 327 330 334 338 338 337 336 335 333 327 320 313 307 303 299 295 292 286 270 252 242 228 204 197
342 341 340 339 338 338 337 336 334 333 332 331 331 330 329 328 328 328 329 331 332 332 330 328 326 325 325 327 332 336 336 327 309 296 293 294 296 304 312 316 315 328 343 344 336 332 331 332 331 329 327 327 328 327 324 318 313 310 310 313 318 320 317 300 277 266 256 235 219
342 342 342 341 341 340 340 339 338 337 336 334 333 332 331 330 331 332 335 337 338 338 336 334 336 341 348 356 1 1 357 348 340 335 329 322 329 342 353 358 1 6 2 347 336 328 322 319 318 317 316 315 315 314 312 308 304 301 301 308 318 330 352 325 304 291 280 268 261
344 343 342 342 342 341 341 340 340 339 338 337 335 334 333 333 335 338 341 343 344 343 344 347 350 356 3 7 8 8 5 1 357 352 344 333 345 6 22 28 23 11 355 338 327 320 316 315 315 315 314 312 309 305 302 298 295 289 281 272 263 260 268 282 286 285 281 276 273
345 344 344 343 342 341 340 340 340 340 339 337 336 334 334 334 338 343 347 349 349 351 355 356 356 360 4 5 7 11 13 11 6 357 352 358 20 35 41 43 32 7 345 332 325 323 324 328 331 331 330 327 320 312 304 296 289 284 276 263 252 253 262 273 280 283 283 281 280
345 344 344 343 341 340 339 339 339 338 337 335 334 333 333 333 338 346 355 1 2 3 4 2 1 2 3 4 8 14 19 20 17 19 27 32 36 39 39 33 12 353 341 336 335 339 348 355 359 360 359 355 349 343 333 319 302 289 281 275 273 277 284 292 299 306 310 311 310
344 343 342 341 340 339 339 338 337 335 333 332 331 330 330 331 335 346 359 8 13 13 11 10 8 6 4 5 10 19 28 37 42 48 49 41 32 22 11 359 351 346 344 347 352 358 4 9 11 13 12 7 6 5 3 0 354 344 334 328 322 324 332 336 340 348 356 3 7
344 343 341 340 339 338 338 337 334 331 329 327 327 328 330 332 335 343 356 9 15 17 16 14 12 10 9 9 15 25 41 56 58 53 40 22 6 355 350 349 350 353 358 1 2 4 7 10 11 11 10 8 7 6 8 13 18 21 21 18 11 7 8 10 14 20 26 29 28
344 343 341 340 339 337 336 334 330 327 325 324 326 329 334 339 343 348 355 4 10 12 11 9 9 10 12 17 24 37 51 56 42 25 10 359 354 353 355 358 1 3 5 5 4 5 6 10 12 12 12 14 15 16 18 22 26 28 28 28 29 30 31 34 36 38 39 40 38
344 343 341 339 337 335 333 330 327 325 324 325 329 334 341 348 353 355 357 357 359 359 358 356 357 1 10 21 28 36 37 22 1 351 349 351 355 358 0 1 2 2 2 2 2 3 6 10 13 16 18 20 22 24 27 28 28 26 25 25 26 27 29 30 32 32 33 32 31
344 342 339 337 335 332 329 327 326 326 328 330 334 340 347 353 355 355 353 352 351 349 348 346 348 354 4 12 12 2 342 333 334 339 346 351 354 357 358 359 359 359 358 359 1 5 9 13 16 18 19 20 21 21 20 18 15 12 11 12 13 13 12 11 11 11 10 8 8
343 340 337 334 331 329 328 328 329 331 334 336 340 345 349 351 351 351 352 351 350 348 348 349 351 354 358 1 358 349 337 333 337 344 348 350 352 354 356 357 357 356 355 356 360 4 7 9 11 12 13 14 13 12 9 5 2 1 1 2 3 3 1 360 358 357 355 353 352
340 337 334 332 331 331 332 335 337 339 341 342 346 349 350 349 352 354 356 356 356 357 359 3 5 4 3 4 1 356 350 348 348 350 352 352 353 355 357 358 357 357 357 357 359 1 2 3 4 4 5 5 5 4 2 0 358 357 357 358 358 358 357 356 355 354 351 349 347
338 335 333 333 335 339 343 346 348 349 350 352 353 353 353 355 359 2 4 6 8 11 13 15 14 12 10 7 3 359 356 354 354 354 355 356 357 359 1 3 4 5 4 5 5 5 5 5 5 4 4 4 4 4 3 2 1 359 358 357 357 356 355 354 353 351 348 344 341
338 338 340 343 348 351 353 354 356 358 0 2 0 1 3 5 7 10 12 14 15 16 16 14 12 10 8 5 2 360 357 356 356 357 360 2 4 6 8 10 11 11 11 12 12 12 12 12 11 11 11 10 11 10 10 8 7 5 2 359 357 355 352 350 347 344 341 336 333
345 349 353 355 357 357 357 358 1 4 6 7 6 8 10 10 10 12 13 13 11 11 11 9 6 3 2 1 2 2 2 2 4 6 9 10 12 12 13 12 11 11 11 12 14 15 15 14 15 15 17 18 18 18 16 14 10 6 1 356 352 348 344 340 337 334 331 327 325
357 360 360 359 357 356 356 357 360 3 5 7 7 7 6 5 5 5 5 4 3 4 5 4 2 1 2 4 6 9 12 15 17 17 16 14 13 12 11 8 6 5 5 6 7 8 8 8 8 10 13 17 19 19 16 12 7 2 356 351 345 341 337 334 332 330 327 325 322
4 2 359 357 356 356 357 357 359 0 2 4 3 1 359 358 357 357 358 358 359 1 2 1 4 9 14 17 17 19 22 24 24 21 17 12 9 6 4 2 359 357 356 355 354 354 354 354 355 357 2 7 11 12 10 7 3 358 354 350 346 341 338 335 334 332 332 330 329
3 1 359 358 357 358 359 360 0 1 2 2 1 359 358 357 357 357 357 358 360 2 2 2 8 14 18 20 22 24 25 25 23 19 15 10 5 1 358 355 352 348 345 342 340 340 340 340 341 344 348 354 360 2 2 1 359 357 353 350 347 343 340 337 335 334 333 333 333
3 2 1 360 359 359 1 2 3 4 5 6 5 3 2 360 357 355 355 357 359 1 3 5 8 11 13 15 18 22 24 24 22 16 9 4 1 357 353 349 346 342 337 333 330 328 327 326 328 331 337 344 351 355 356 356 355 353 351 349 346 342 339 336 333 331 330 329 330
3 3 2 0 359 359 1 3 4 6 7 7 6 3 360 355 351 350 350 352 355 358 0 3 5 7 9 11 14 18 20 20 17 10 2 356 352 349 346 343 341 339 336 331 325 320 316 312 313 318 328 338 347 351 353 352 351 350 349 347 345 341 338 335 332 330 329 327 327
2 2 1 359 358 357 358 1 1 1 0 0 359 356 352 349 346 346 347 348 351 354 358 1 3 4 5 7 10 11 12 10 6 359 353 347 343 339 338 338 339 342 343 340 332 320 308 299 300 308 322 334 344 349 350 350 349 348 348 347 345 343 340 336 334 332 331 331 331
0 359 359 357 356 354 354 356 356 354 353 352 351 350 348 346 345 346 346 347 349 351 354 356 358 359 360 1 2 1 359 355 351 346 342 337 334 333 334 338 345 351 356 357 351 332 308 294 295 305 320 332 341 346 348 350 350 350 350 349 347 345 343 340 337 336 335 334 334
357 356 355 355 355 353 351 352 352 352 351 350 350 349 348 347 346 347 347 347 347 348 348 348 349 350 351 352 351 349 345 342 338 335 333 331 331 333 338 347 354 359 2 5 5 355 332 311 306 313 322 331 339 345 349 353 354 355 354 352 349 347 344 342 339 338 336 335 334
355 353 353 354 353 352 352 352 352 352 352 352 351 351 350 349 348 348 347 346 344 342 340 339 340 342 342 343 341 338 335 333 333 332 332 332 334 338 343 349 353 355 358 3 9 9 0 343 330 326 329 334 340 346 352 356 358 358 356 354 351 348 345 343 342 341 341 341 341
354 353 352 353 353 353 353 354 353 354 354 354 353 352 351 350 349 348 346 343 340 337 335 334 335 337 338 338 336 335 334 334 336 337 337 338 339 340 341 344 347 347 348 354 1 5 3 355 345 339 337 339 342 347 352 355 357 358 357 355 352 349 347 346 346 348 349 351 353
354 354 353 354 353 354 354 355 355 354 354 354 354 353 352 351 350 348 346 343 340 337 336 337 338 339 339 339 338 338 340 342 342 340 338 338 338 339 340 341 343 341 340 341 345 348 348 347 344 341 339 339 342 345 347 350 352 354 355 356 354 351 348 346 347 348 350 352 355
355 355 355 354 354 353 354 354 353 353 352 352 353 352 352 351 350 349 348 347 346 344 344 344 344 344 342 341 341 341 342 341 337 335 335 338 339 340 340 340 338 334 331 331 332 334 336 338 338 337 336 336 338 339 340 341 344 348 351 353 353 351 348 344 343 342 343 344 345
356 356 355 354 352 352 352 351 350 349 349 349 350 350 350 349 349 349 350 351 351 351 350 349 347 344 341 338 336 334 333 331 331 334 337 340 341 340 340 339 334 330 327 325 325 327 330 332 333 333 333 334 334 333 332 333 337 341 345 349 350 349 347 342 340 338 338 338 337
357 355 353 351 350 349 349 348 347 346 346 346 346 346 346 345 344 345 347 349 350 349 347 344 341 337 333 331 330 328 328 331 334 338 340 341 339 338 338 338 335 331 328 326 325 326 327 328 328 329 330 331 330 328 327 329 332 337 341 345 347 347 345 342 338 337 336 336 335
355 353 350 348 347 346 345 344 343 343 343 343 342 342 341 340 339 339 339 340 340 338 335 332 330 328 329 330 332 333 334 336 338 339 338 337 336 336 337 338 338 336 334 331 328 326 325 324 324 325 326 326 324 323 323 326 330 334 339 344 347 346 344 341 338 336 335 335 335
352 349 346 344 343 342 341 340 340 339 339 339 338 338 337 335 334 334 334 333 331 329 327 326 326 328 331 333 335 336 337 337 337 337 336 335 336 337 338 339 339 338 335 331 328 325 323 322 321 320 320 319 318 318 319 322 326 332 339 344 345 343 340 337 336 335 335 336 335
348 345 341 339 338 337 337 337 336 335 335 335 335 334 333 332 331 331 331 331 329 327 326 326 327 330 333 335 336 336 335 335 336 336 335 336 339 341 343 341 338 336 333 331 328 326 324 322 320 318 316 314 314 315 316 319 325 332 338 342 340 336 333 332 332 334 335 335 335
344 340 337 334 332 332 332 332 332 331 331 331 331 330 330 329 329 329 330 331 330 328 328 328 329 332 334 335 335 334 334 334 335 336 337 339 343 346 347 345 342 339 338 336 334 332 330 327 323 318 315 313 313 315 317 320 325 331 334 335 332 329 327 327 330 332 334 334 333
339 336 332 329 328 328 328 328 328 328 328 328 328 328 327 327 327 328 330 331 332 332 331 331 332 333 334 335 334 333 334 336 338 340 342 345 348 350 351 350 348 347 347 347 346 343 339 333 325 318 313 312 314 317 320 323 326 328 330 331 330 329 329 328 330 332 333 332 331
336 333 330 328 329 329 329 328 327 328 328 329 329 328 328 327 327 328 330 332 334 335 335 335 336 336 338 338 339 340 342 346 349 352 353 353 354 355 357 357 357 357 357 357 356 353 347 340 330 319 311 310 314 320 325 326 328 331 334 334 334 333 333 331 331 331 331 331 329
Height
816 816 815 814 814 813 812 811 810 809 808 807 806 804 803 802 801 800 799 798 796 795 794 793 792 791 790 790 789 789 788 787 786 786 786 786 786 786 786 786 785 785 786 787 788 788 787 785 782 778 775 772 771 769 769 769 769 768 768 768 769 769 769 770 770 771 771 771 771
816 815 814 814 813 812 811 810 809 808 807 806 805 804 803 802 800 799 798 797 796 794 793 791 790 790 789 788 788 787 786 785 784 784 784 784 784 784 784 784 784 783 783 784 784 785 785 785 783 780 777 774 772 770 768 767 767 766 766 766 766 767 767 767 767 767 768 769 769
815 814 814 813 812 811 810 809 808 807 806 805 804 803 802 801 800 798 797 796 794 793 792 790 789 788 787 786 786 785 784 782 782 782 782 782 782 782 782 782 782 782 781 781 781 782 782 783 782 781 779 776 774 772 769 768 767 766 766 766 766 766 766 765 764 764 764 765 767
815 814 813 812 811 811 810 809 808 807 805 804 803 802 801 800 799 797 796 794 793 792 790 789 788 787 786 785 784 783 781 780 780 780 780 779 779 779 779 780 780 780 780 779 779 780 781 782 782 781 779 777 775 773 771 770 768 767 766 767 768 769 768 766 765 763 762 762 764
814 814 813 812 811 810 809 809 807 806 805 804 803 801 800 799 798 797 795 794 792 791 790 789 787 786 785 784 782 780 779 778 778 778 777 775 775 775 776 777 777 777 777 777 778 779 780 781 781 780 778 776 774 773 771 769 768 767 767 768 769 769 769 768 767 765 762 760 761
814 814 813 812 811 810 809 808 807 806 804 803 802 801 799 798 797 796 794 793 792 790 789 788 786 785 783 782 780 779 778 777 777 777 775 773 772 772 772 773 773 773 774 775 778 779 780 779 778 777 776 776 775 774 773 772 770 769 769 769 769 769 768 768 769 769 767 764 762
814 814 813 812 811 810 809 808 807 805 804 803 802 800 799 798 797 795 794 792 791 789 788 787 785 784 782 781 780 779 779 778 777 777 775 773 770 769 769 770 770 771 772 774 778 779 779 778 777 776 776 776 776 775 774 773 771 770 769 769 769 769 767 768 770 771 772 770 767
814 814 813 812 811 810 809 808 807 805 804 803 802 800 799 798 796 794 793 791 790 789 788 787 785 783 782 780 780 779 779 779 779 778 776 774 772 770 769 769 769 770 772 775 778 779 778 777 776 775 775 774 774 774 774 773 771 769 769 769 771 772 771 769 771 773 773 773 770
814 814 813 812 811 810 809 808 807 805 804 803 802 801 799 798 796 794 792 791 790 789 788 787 785 784 782 781 780 779 779 779 779 779 778 776 774 772 770 769 770 771 774 776 777 777 777 776 774 773 773 773 773 772 772 770 769 768 768 769 770 771 772 772 771 771 771 770 770
814 814 812 811 811 810 809 808 806 805 804 803 802 801 799 798 796 794 793 792 790 789 788 787 786 784 783 782 780 780 779 779 779 779 779 779 776 774 773 772 773 773 774 775 776 776 775 774 773 772 772 772 771 771 770 769 768 768 767 768 768 769 769 770 770 769 769 769 768
814 814 813 812 811 809 809 807 806 805 804 803 802 800 799 798 796 795 794 792 790 789 788 787 786 785 784 783 782 781 780 779 779 780 781 781 780 778 776 775 775 775 775 775 775 774 774 773 772 772 771 771 771 771 770 769 769 769 768 769 769 769 769 769 769 768 767 766 766
815 814 813 812 811 810 809 807 806 805 804 803 801 800 799 798 796 795 794 792 790 790 789 788 787 786 785 784 784 784 782 781 781 781 782 783 784 783 780 778 777 777 776 776 775 774 773 772 772 771 770 770 770 771 771 770 770 769 769 769 769 768 768 767 767 766 765 765 765
815 814 813 812 811 810 809 808 806 805 804 803 801 800 799 797 795 794 793 792 791 791 790 789 787 786 785 785 785 785 785 784 784 784 784 783 783 783 782 780 779 778 777 776 775 775 774 774 773 772 771 770 770 771 771 771 770 770 769 769 768 768 767 767 767 766 765 765 765
815 814 813 812 811 810 809 808 806 805 804 802 801 799 798 796 794 793 792 791 791 790 790 789 788 787 785 784 785 787 787 786 785 785 785 784 783 782 781 780 779 779 778 778 777 776 776 775 774 774 773 772 771 771 771 772 772 771 771 770 770 769 769 768 767 766 766 766 766
815 814 814 812 811 810 809 808 806 805 803 802 800 799 797 795 794 793 792 791 790 790 789 789 789 788 787 785 786 787 788 787 786 785 785 785 784 783 782 781 780 779 779 778 778 777 776 776 775 774 773 773 772 772 772 773 773 773 773 772 772 771 770 769 769 768 768 768 768
815 814 814 812 811 810 809 807 806 804 803 801 800 798 797 795 794 792 792 791 790 789 789 789 790 789 788 787 786 786 787 787 786 786 785 784 784 783 782 781 780 779 779 779 778 777 777 776 775 774 774 773 773 773 774 774 774 774 774 774 773 772 771 770 770 769 769 769 769
816 814 814 812 811 809 808 807 805 804 802 801 799 798 796 795 794 793 792 791 790 789 789 789 789 789 789 787 786 786 786 786 786 786 785 784 784 783 782 781 780 779 779 779 779 778 777 776 776 775 774 774 774 774 774 775 774 774 774 774 773 772 772 771 770 770 770 770 769
816 814 813 812 811 809 808 807 805 804 802 800 799 797 796 795 794 793 792 791 790 790 789 789 789 789 788 787 787 786 786 786 786 786 785 785 784 783 782 781 780 780 780 780 779 779 777 776 775 775 774 774 775 775 775 775 775 774 774 774 773 773 772 771 771 771 770 770 770
815 814 813 812 811 809 808 807 805 804 802 801 799 798 797 796 795 794 793 792 791 791 790 790 789 789 788 788 787 787 787 786 786 786 786 785 784 783 782 781 781 780 780 780 779 778 777 776 775 775 775 775 775 775 775 775 775 775 774 774 773 773 772 772 771 771 771 770 770
816 814 814 813 811 810 809 807 806 804 803 801 799 799 798 797 796 795 794 793 793 792 791 791 790 789 789 788 788 787 787 787 787 786 786 785 784 784 783 782 781 781 780 779 779 778 777 776 776 775 775 776 776 776 775 775 775 775 774 774 774 773 773 772 772 772 771 771 770
816 815 814 813 812 811 809 808 807 805 804 802 801 800 799 799 798 797 796 795 794 793 792 792 791 790 789 789 788 788 788 787 787 786 786 785 784 784 783 782 782 781 780 779 779 778 778 777 777 777 776 776 776 776 776 775 775 775 775 774 774 774 773 773 773 772 772 771 771
817 816 815 814 813 812 810 809 808 806 805 804 803 802 801 800 799 798 797 796 795 794 793 792 791 790 789 789 788 788 788 787 787 787 786 785 785 784 784 783 782 781 780 780 779 779 779 778 778 778 777 777 776 776 776 776 775 775 775 775 774 774 774 773 773 773 772 772 771
817 817 816 815 814 813 812 810 809 808 806 805 804 803 802 801 800 799 798 797 795 794 794 793 792 790 789 789 788 788 788 787 787 787 786 786 785 784 784 783 782 782 781 780 780 779 779 779 779 778 778 777 777 777 776 776 776 775 775 775 774 774 774 773 772 772 771 771 770
818 818 817 816 815 814 813 811 810 808 807 806 804 804 803 802 801 799 798 797 796 795 794 793 792 791 790 789 789 788 788 787 787 786 786 786 785 785 784 784 783 782 781 781 780 780 779 779 779 779 778 778 777 777 777 776 776 775 775 774 774 774 773 772 772 771 770 770 769
819 819 818 817 816 814 813 812 810 809 808 807 805 804 803 802 801 800 799 798 797 795 794 793 792 791 790 789 789 788 788 787 786 786 786 786 785 785 784 784 783 783 782 781 780 780 779 779 779 779 779 778 778 777 777 777 776 775 775 774 774 773 772 771 771 770 769 769 768
820 819 818 817 816 815 814 813 812 810 809 808 807 805 804 803 802 801 799 798 797 796 795 794 793 792 791 790 789 788 788 787 787 786 786 786 786 785 785 784 784 783 782 781 780 779 779 779 779 779 779 778 778 778 777 777 776 775 775 774 774 773 772 771 770 769 769 768 768
820 819 819 817 816 815 814 814 812 811 810 809 808 806 805 804 802 801 800 799 797 796 795 794 793 792 791 790 789 789 788 788 787 787 787 787 786 785 785 784 783 782 781 781 780 779 779 779 779 779 779 779 778 778 777 777 776 775 774 774 773 772 772 771 770 769 769 768 767
820 819 819 817 816 816 815 814 812 811 810 809 808 806 805 804 803 801 800 799 798 796 795 794 794 793 792 791 790 789 789 789 788 788 788 787 786 785 785 784 783 782 781 780 780 779 779 779 779 779 779 779 778 778 777 777 776 775 774 774 773 772 771 771 770 769 769 768 767
821 820 819 817 816 816 814 814 812 811 810 809 807 806 805 804 802 801 800 799 798 797 796 795 794 793 792 791 791 790 790 789 789 788 788 787 786 785 785 784 783 782 781 780 780 780 779 779 779 779 779 779 778 778 777 776 776 775 774 774 773 772 771 771 770 769 769 768 767
821 820 819 818 816 815 814 813 812 811 809 808 807 806 804 803 802 801 800 799 798 797 796 795 794 794 793 792 791 791 790 789 789 789 788 787 786 786 785 784 783 782 781 781 780 780 780 780 780 779 779 779 778 777 776 776 775 774 774 773 773 772 771 771 770 769 769 768 767
820 819 819 817 816 815 814 813 811 810 809 808 807 805 804 803 802 801 800 799 798 797 796 795 794 794 793 792 792 791 790 789 789 789 788 787 787 786 785 784 783 782 782 781 781 780 780 780 779 779 779 778 777 776 776 775 774 774 774 773 773 772 771 771 770 769 769 768 767
820 819 818 817 816 815 814 813 811 810 809 808 806 805 804 803 802 801 800 799 798 797 796 795 794 794 793 792 792 791 790 789 789 789 788 787 786 786 785 784 783 782 782 781 780 780 780 779 779 778 778 777 776 776 775 775 774 774 773 772 772 772 771 770 770 769 769 768 767
820 819 818 817 816 815 814 812 811 810 809 808 806 805 804 803 802 801 800 799 798 797 796 795 794 794 793 792 792 791 790 789 789 788 788 787 786 785 784 784 783 782 781 781 780 780 779 779 778 778 777 776 776 775 775 774 774 773 772 772 771 771 770 770 769 769 768 767 767
819 819 818 817 816 815 814 812 811 810 809 808 806 805 804 803 802 801 800 799 798 797 796 796 795 794 793 792 791 791 790 789 789 788 787 786 785 785 784 784 783 782 781 780 780 779 779 778 778 777 777 776 775 775 774 774 773 772 771 771 770 770 770 769 769 769 768 767 767
819 819 818 817 816 815 814 813 811 810 809 808 806 805 804 804 802 801 800 799 798 797 796 796 795 794 793 792 791 790 789 789 788 787 787 786 785 784 784 783 782 782 781 780 780 779 779 778 777 777 776 776 775 774 774 773 773 772 771 770 769 769 769 769 768 768 768 767 766
819 818 818 817 816 815 814 813 811 810 809 808 807 805 804 804 802 801 800 799 798 797 796 795 794 794 793 792 791 790 789 789 788 787 786 785 785 784 783 783 782 781 781 780 779 779 778 778 777 776 776 775 775 774 774 773 772 771 770 769 769 768 768 768 768 767 767 766 766
819 818 817 816 815 814 814 813 811 810 809 808 807 806 804 804 802 801 800 799 798 797 796 795 794 793 792 792 791 790 789 789 788 787 786 785 784 784 783 782 782 781 781 780 779 779 778 777 776 776 775 774 774 774 773 772 771 770 769 769 768 768 768 767 767 766 766 765 765
818 818 817 816 815 814 813 812 811 810 809 808 807 806 804 804 802 801 800 799 798 797 796 794 794 793 792 791 791 790 789 789 788 787 786 785 784 783 782 781 781 780 780 779 779 778 777 777 776 775 774 774 773 773 772 771 771 770 769 768 768 767 767 767 766 766 765 765 764
818 817 816 815 814 814 813 812 811 810 809 808 807 805 804 803 802 801 800 799 798 797 795 794 794 793 792 791 790 790 789 789 788 787 786 785 784 783 782 781 780 780 779 779 778 777 777 776 775 774 774 773 773 772 771 771 770 769 768 768 767 766 766 766 765 765 764 764 764
817 816 816 815 814 813 812 811 810 809 809 807 806 805 804 803 802 800 799 799 797 796 795 794 793 792 791 791 790 789 789 788 788 787 786 785 784 783 782 781 780 779 779 779 778 777 776 775 775 774 774 773 772 772 771 770 769 769 768 767 766 766 765 765 765 764 764 763 763
816 816 815 814 814 813 812 811 810 809 808 807 806 804 803 802 801 800 799 798 797 796 795 794 793 792 791 790 789 789 788 788 787 787 786 785 784 783 782 781 780 779 779 778 778 777 776 775 774 774 774 773 772 772 771 770 769 768 767 767 766 766 765 764 764 763 763 762 762